Location: Catacaguana
(10.4120°N, 66.7591°W)
Time: 05:33:55
(UTC+00:00)

Centaur AC-72 - Pass Details

Date: 27 May 2022
Orbit: 1124 x 35231 km, 19.6° (Epoch: 24 June)

Event Time Altitude Azimuth Distance (km) Brightness Sun altitude
Rises 01:28:07 0° 286° (WNW) 4,016 6.6 -36.4°
Reaches altitude 10° 01:30:21 10° 286° (WNW) 2,985 5.7 -36.9°
Enters shadow 01:35:01 66° 277° (W) 1,422 3.3 -37.8°
